AirNav  
 
 438 users online  

5CN4 Vosburgh Airfield
Cuyama, California, USA

GOING TO CUYAMA?


FAA INFORMATION EFFECTIVE 25 FEBRUARY 2021

Location

FAA Identifier: 5CN4
Lat/Long: 34-55-25.0800N 119-34-17.4000W
34-55.418000N 119-34.290000W
34.9236333,-119.5715000
(estimated)
Elevation: 2200 ft. / 671 m (estimated)
From city: 3 miles E of CUYAMA, CA
Time zone: UTC -8 (UTC -7 during Daylight Saving Time)
Zip code: 93254

Airport Operations

Airport use: Private use. Permission required prior to landing
Activation date: 02/2011
Control tower: no
ARTCC: LOS ANGELES CENTER
FSS: RANCHO MURIETA FLIGHT SERVICE STATION
Attendance: CONTINUOUS
Wind indicator: yes
Segmented circle: no

Nearby radio navigation aids

VOR radial/distance  VOR name  Freq  Var
FLWr109/17.7FELLOWS VOR/DME117.5016E
RZSr008/26.7SAN MARCUS VORTAC114.9014E
GVOr031/34.8GAVIOTA VORTAC113.8016E
GMNr266/35.7GORMAN VORTAC116.1016E

Airport Services

Runway Information

Runway 16/34

Dimensions: 2600 x 60 ft. / 792 x 18 m
Surface: dirt, in good condition
RUNWAY 16  RUNWAY 34
Traffic pattern: leftleft
Obstructions: 30 ft. plines, 50 ft. from runwaynone

Airport Ownership and Management from official FAA records

Ownership: Privately-owned
Owner: JASON DOUGLAS VOSBURGH
162 MANLEY CHAPEL RD
FAIRMONT, WV 26554-5359
Phone 805-766-3880
Manager: JASON VOSBURGH
1654 HWY 166
CUYAMA, CA 93254
Phone 805-766-3880

Airport Operational Statistics

Aircraft based on the field: 1
Single engine airplanes: 1
    
Aircraft operations: 1/year *
100% local general aviation
* for 12-month period ending 04 July 2010

Additional Remarks

FOR CD CTC LOS ANGELES ARTCC AT 661-575-2079.

Instrument Procedures

There are no published instrument procedures at 5CN4.

Some nearby airports with instrument procedures:

KIZA - Santa Ynez Airport (31 nm SW)
KSBA - Santa Barbara Municipal Airport (33 nm SW)
L45 - Bakersfield Municipal Airport (37 nm NE)
KBFL - Meadows Field Airport (40 nm NE)
KMIT - Shafter Airport-Minter Field (40 nm NE)
 
Loc | Ops | Rwys | IFR | FBO | Links
Com | Nav | Svcs | Stats | Notes
Aerial photo
WARNING: Photo may not be current or correct
Aerial photo of 5CN4 (Vosburgh Airfield)
Photo by Jason Vosburgh
Photo taken 28-May-2011

Do you have a better or more recent aerial photo of Vosburgh Airfield that you would like to share? If so, please send us your photo.

 
Sectional chart

 
Airport distance calculator
Flying to Vosburgh Airfield? Find the distance to fly.

From to 5CN4

Sunrise and sunset
Times for 28-Feb-2021
 Local
(UTC-8)
 Zulu
(UTC)
Morning civil twilight06:0414:04
Sunrise06:3014:30
Sunset17:5201:52
Evening civil twilight18:1702:17

Current date and time
Zulu (UTC)  01-Mar-2021 06:35:43
Local (UTC-8)  28-Feb-2021 22:35:43
 
METAR
KIZA 
31nm SW 
010615Z AUTO 07005KT 10SM CLR 06/M02 A3021 RMK AO2
KSBA 
32nm SW 
010553Z 00000KT 10SM CLR 08/M01 A3019 RMK AO2 SLP222 T00831011 10189 20083 53011 $
KBFL 
40nm NE 
010554Z 15015G23KT 10SM CLR 16/M17 A3018 RMK AO2 SLP217 T01561167 10217 20156 51006 $
KSMX 
43nm W 
010551Z AUTO 15003KT 10SM CLR 08/01 A3021 RMK AO2 SLP233 T00780011 10183 20072 51008
KSDB 
43nm E 
010553Z AUTO 06021G28KT 10SM CLR 06/M19 A3026 RMK AO2 PK WND 07031/0542 SLP234 T00561189 10089 20056 51006
KLPC 
47nm W 
010556Z AUTO 08005KT 10SM CLR 06/M01 A3022 RMK AO2 SLP234 T00561011 10200 20056 51008
KOXR 
47nm SE 
010551Z 01005KT 10SM CLR 11/05 A3019 RMK AO2 SLP224 T01060050 10194 20106 51010
KCMA 
49nm SE 
010555Z AUTO 08013KT 10SM CLR 17/M16 A3019 RMK AO2 SLP231 T01721161 10233 20156 51010
TAF
KSBA 
32nm SW 
010310Z 0103/0124 VRB03KT P6SM SCT350 FM011700 16005KT P6SM SKC FM012000 23008KT P6SM SCT250
KBFL 
40nm NE 
010624Z 0106/0206 13012KT P6SM SKC TEMPO 0106/0109 15015G22KT FM020300 VRB04KT P6SM SKC
NOTAMs
Click for the latest NOTAMs
NOTAMs are issued by the DoD/FAA and will open in a separate window not controlled by AirNav.

 

 
 

Would you like to see your business listed on this page?

 If your business provides an interesting product or service to pilots, flight crews, aircraft, or users of the Vosburgh Airfield, you should consider listing it here.  To start the listing process, click on the button below
 
Add a business
 

Other Pages about Vosburgh Airfield

Update a link
 
Copyright © AirNav, LLC. All rights reserved. Privacy Policy  Contact